Theta_e
354 355 356 357 356 355 355 355 354 354 354 353 348 346 344 346 351 357 365 362 349 346 350 348 347 347 345 345 345 344 344 343 344 346 347 350 350 351 352 352 351 352 353 354 355 356 357 357 358 358 357 356 356 355 356 356 355 354 353 352 353 352 351 351 351 351 351 350 349 348 347 346 346 345
355 356 358 358 357 357 356 355 354 353 354 353 348 346 346 347 349 348 356 362 351 343 346 344 345 346 343 343 344 344 346 345 346 347 347 348 350 350 351 352 354 356 357 358 359 359 359 360 359 359 357 357 357 357 356 355 353 352 351 351 351 351 351 350 351 350 350 349 349 348 347 346 346 346
355 356 356 357 357 357 357 356 355 354 355 354 350 349 349 350 351 348 349 356 350 341 341 342 343 345 344 343 343 344 345 346 347 347 347 349 351 351 353 355 356 356 358 358 359 360 360 360 360 359 358 357 356 355 354 351 350 350 350 351 351 351 352 351 351 351 351 350 350 349 348 348 347 346
355 355 355 356 356 356 357 356 356 356 356 356 354 353 352 352 352 350 349 352 349 344 345 346 348 350 349 346 345 346 346 346 348 348 350 351 350 351 353 354 355 356 357 358 359 360 359 358 358 358 358 356 354 352 350 349 349 350 351 351 351 351 351 351 350 350 350 350 350 350 349 349 348 347
355 354 354 354 355 355 356 355 356 357 356 357 356 354 355 353 353 351 351 351 350 350 351 353 353 354 354 350 347 349 349 348 350 350 351 350 349 350 353 355 356 356 357 359 359 358 357 357 357 355 354 352 350 349 349 350 350 350 350 348 347 348 347 348 347 346 346 346 346 346 348 349 349 348
353 354 354 353 353 354 355 356 355 356 356 356 357 356 355 355 355 354 354 353 352 352 354 355 355 355 356 353 350 351 353 351 351 352 351 348 347 351 355 357 356 357 358 358 357 355 355 354 352 351 350 349 349 349 349 350 349 348 346 345 344 344 344 344 344 343 343 342 342 343 345 347 348 348
351 351 353 354 353 353 354 354 354 356 356 356 356 356 356 356 356 356 356 355 353 354 355 356 356 356 357 354 352 353 354 353 354 353 350 349 349 352 356 357 358 359 359 356 355 355 352 348 348 348 348 348 349 349 348 347 345 344 344 344 343 343 343 343 343 342 343 343 342 343 345 346 347 348
350 350 351 353 353 352 352 353 353 354 355 356 356 356 356 355 356 356 356 356 356 355 356 356 357 356 356 354 354 355 355 354 354 353 351 350 351 353 357 359 360 359 357 355 356 353 346 345 347 347 347 346 346 345 345 343 343 342 342 343 342 342 342 342 342 342 342 342 342 343 343 345 345 346
352 352 351 350 352 353 352 352 354 354 353 353 354 354 355 355 355 356 356 356 356 356 356 356 356 355 356 355 355 354 355 355 354 354 352 351 352 355 358 360 360 357 355 356 355 349 344 344 346 346 347 346 344 342 342 342 341 341 341 341 340 340 340 340 340 340 340 341 342 342 342 343 344 345
352 352 351 350 351 352 351 351 352 354 354 354 353 354 354 355 355 355 355 355 355 355 356 356 356 356 355 355 355 354 355 356 356 355 353 352 354 358 359 360 357 354 355 357 354 346 343 343 344 347 347 344 341 340 340 340 340 339 339 338 337 337 337 337 338 339 339 339 339 340 341 342 344 345
353 353 351 350 350 352 353 352 351 352 353 354 354 354 354 354 354 355 355 355 354 354 355 355 356 355 355 355 355 355 356 356 356 356 355 355 356 358 360 358 355 354 356 357 352 346 344 344 345 348 346 343 341 339 339 339 338 337 337 336 336 336 336 337 337 338 338 338 339 339 339 340 342 344
353 353 353 351 350 349 351 353 352 352 352 353 353 354 354 354 354 354 355 356 355 354 354 355 355 355 355 356 355 356 356 355 356 355 356 357 357 358 359 356 353 354 358 357 352 346 345 345 345 346 344 341 339 338 337 337 336 336 335 335 335 335 335 334 333 332 332 333 334 335 337 338 340 341
353 352 353 353 351 349 349 350 352 352 352 352 351 351 353 354 354 354 354 355 355 354 354 355 355 355 356 355 355 355 355 355 355 356 356 356 356 358 358 354 352 355 358 357 352 347 346 345 343 344 342 339 338 337 336 335 335 335 334 334 335 333 331 328 324 322 321 321 323 324 327 330 334 337
351 351 351 351 350 350 350 349 350 350 351 352 352 351 351 352 354 355 355 355 354 355 354 355 355 355 355 355 355 355 355 355 356 356 356 355 355 356 355 351 352 356 357 357 352 347 348 345 340 341 340 337 336 335 335 334 334 334 334 334 333 331 327 323 320 318 317 317 318 318 318 320 323 327
350 349 350 350 350 351 351 350 349 349 350 352 353 353 352 352 354 355 356 355 354 354 354 354 354 355 355 354 353 355 354 355 355 355 355 355 353 354 353 351 353 356 356 357 352 348 348 345 338 339 339 336 335 334 334 334 334 333 334 333 331 328 324 321 318 317 317 317 317 318 318 319 319 320
350 350 350 351 351 351 351 350 350 350 350 351 353 353 353 353 354 355 356 356 355 354 354 354 354 354 354 353 353 354 354 354 355 354 353 353 352 352 352 351 354 357 356 355 350 346 348 345 338 337 337 335 334 334 333 333 333 333 333 331 329 325 320 318 317 315 316 316 316 317 318 319 321 320
350 351 351 352 352 352 351 351 352 351 351 351 352 353 354 355 354 354 355 356 356 355 355 355 355 354 354 354 352 352 354 354 355 353 353 352 352 351 350 351 355 357 355 353 349 346 348 345 338 336 336 334 333 333 332 332 333 332 332 330 326 320 316 316 315 315 315 316 316 317 317 319 322 323
351 351 352 353 353 352 351 351 351 352 352 351 352 353 354 354 353 352 352 354 355 356 356 355 354 353 352 353 352 351 352 354 354 353 353 353 353 352 352 354 357 356 354 351 347 345 348 346 338 335 335 334 333 332 331 332 332 332 331 328 321 317 315 315 315 315 315 315 316 317 317 319 323 324
352 352 352 353 353 353 352 352 351 351 351 351 352 352 352 352 352 350 349 350 351 353 353 353 352 351 350 351 351 350 352 354 354 354 353 354 354 354 355 356 356 355 353 350 346 345 348 345 338 334 334 333 332 332 331 332 332 332 329 323 318 316 315 314 314 314 315 315 316 316 317 320 323 325
352 352 353 353 353 353 353 352 352 352 353 353 353 353 352 352 351 350 349 349 349 350 352 351 350 349 348 349 349 350 352 353 353 353 354 355 356 355 356 356 355 354 352 348 345 345 346 343 337 334 334 333 332 331 331 330 331 330 326 320 317 316 315 314 314 314 314 317 316 316 318 320 323 324
352 352 353 354 353 354 353 353 353 353 353 354 354 354 353 353 353 352 349 349 351 351 352 352 350 349 349 349 348 350 351 352 353 354 356 356 356 356 355 355 354 354 351 347 346 345 343 339 335 335 335 333 332 332 331 330 331 329 323 318 317 316 314 313 314 313 314 316 317 317 318 320 321 322
352 353 353 353 353 354 353 353 353 353 354 354 354 354 355 354 354 352 349 350 352 352 352 351 350 348 348 347 348 349 351 353 355 356 358 358 357 355 354 354 354 353 350 348 345 343 338 335 335 336 336 335 334 332 331 330 330 327 321 318 317 316 314 313 313 313 314 316 317 317 318 319 319 320
352 352 352 353 354 354 354 354 353 354 354 354 354 355 354 354 354 352 351 352 352 352 351 351 349 347 346 346 348 351 353 356 358 359 360 358 357 355 355 354 353 352 351 348 346 341 335 334 335 335 335 336 336 333 331 331 329 325 320 318 317 316 314 314 313 313 313 314 316 317 317 318 318 319
351 352 353 353 354 354 354 354 354 354 354 354 355 354 354 354 353 351 351 352 352 351 351 350 350 349 349 350 352 354 355 357 359 359 358 358 357 355 355 354 353 353 351 347 345 340 336 335 336 334 333 334 334 333 332 331 329 323 319 318 317 316 315 314 313 313 313 313 314 315 316 317 317 318
352 352 352 353 354 354 354 354 354 354 354 354 354 354 353 353 352 351 352 352 351 351 351 351 352 352 351 352 353 354 356 357 358 358 358 359 358 357 356 355 354 354 351 344 339 337 336 336 336 334 332 331 329 329 331 331 328 322 318 318 317 316 316 314 313 313 312 312 313 314 315 316 317 317
352 352 353 354 354 354 354 354 354 354 355 355 354 354 354 353 352 352 352 352 351 352 352 352 353 353 353 354 355 356 357 357 358 358 358 359 358 357 357 355 353 354 352 342 334 335 336 336 335 333 331 330 328 328 330 331 328 322 318 317 317 316 316 314 313 313 313 312 312 313 314 315 316 316
352 353 353 353 354 354 354 354 353 353 354 355 355 354 354 354 353 354 353 354 354 353 353 353 354 354 355 356 356 357 357 358 358 358 359 358 357 357 356 355 353 352 346 338 334 336 337 336 334 333 330 328 328 329 330 331 328 322 318 318 317 316 316 315 314 313 313 312 312 312 314 314 315 315
353 353 354 354 354 354 354 354 354 354 354 355 355 355 355 355 355 356 357 357 357 355 354 355 355 355 356 357 358 358 358 358 358 358 358 357 357 356 355 353 351 345 339 335 336 337 337 336 335 332 329 326 326 328 330 330 327 321 319 318 317 316 316 315 314 314 313 313 312 312 313 314 314 315
354 354 354 355 355 355 355 356 355 356 355 356 355 355 355 355 356 356 356 356 356 356 355 356 356 357 357 359 359 359 359 359 358 357 358 357 356 355 353 348 343 339 336 336 337 337 338 337 334 331 327 325 324 327 329 328 324 321 319 319 318 317 316 315 314 314 314 313 313 312 312 312 313 314
354 354 354 356 356 356 356 356 356 356 357 356 356 356 356 355 355 355 354 354 354 355 355 356 357 358 359 359 359 359 359 359 358 357 357 356 355 353 347 341 338 336 336 337 337 338 338 335 332 329 326 324 325 328 328 325 322 320 319 319 318 317 316 315 315 314 314 314 314 312 312 312 312 313
355 355 355 356 356 356 356 356 357 357 356 356 357 356 356 356 356 355 356 355 355 354 355 356 356 357 357 358 359 359 359 359 358 357 356 356 356 351 343 338 337 337 336 337 338 337 335 332 329 326 324 324 326 328 327 325 322 320 320 319 319 318 317 316 315 314 314 314 314 314 313 312 312 312
355 355 354 354 354 355 355 356 356 356 355 355 356 356 357 357 357 356 357 356 355 355 356 356 355 356 356 357 358 358 359 358 357 356 354 354 354 348 340 337 337 336 337 337 337 334 331 329 327 324 322 323 325 326 325 324 322 321 320 320 319 318 317 316 315 315 315 315 314 314 313 313 313 312
354 352 351 351 352 353 353 354 354 354 354 354 355 356 356 357 357 358 358 357 357 358 358 357 356 356 356 357 357 358 357 357 357 355 352 352 351 344 338 336 336 335 336 335 333 331 329 327 325 323 322 323 324 324 324 323 321 320 320 320 319 319 317 317 315 315 314 315 315 314 313 313 313 312
350 349 348 349 350 351 351 352 353 353 353 353 353 355 356 357 357 358 358 358 360 361 360 358 356 356 356 356 357 357 356 355 355 353 350 349 346 340 336 335 335 334 334 333 331 330 329 327 325 322 322 323 324 324 323 322 321 320 320 320 320 319 319 317 316 315 315 315 314 314 314 314 313 313
347 346 347 348 349 350 350 351 352 353 352 352 352 354 356 357 358 357 357 358 359 360 360 358 356 355 355 356 357 356 355 354 353 351 347 344 341 338 336 335 334 334 333 332 330 330 329 327 324 322 322 322 323 323 322 322 321 321 320 320 320 320 319 318 317 316 316 315 314 314 314 314 313 313
347 347 347 348 349 350 351 351 352 352 351 351 353 354 355 356 357 356 355 357 358 358 358 357 355 354 354 355 356 355 354 353 351 349 345 341 338 337 336 334 334 333 332 331 330 330 329 326 324 323 322 321 323 324 324 322 322 321 321 321 321 320 319 319 318 317 316 315 315 314 314 314 313 313
348 349 349 349 349 350 351 352 351 350 350 352 353 354 353 355 355 355 354 354 354 354 355 354 353 353 353 353 354 353 351 349 347 346 343 339 336 335 333 333 333 333 332 331 331 330 329 327 325 324 322 323 328 331 327 322 321 322 321 321 321 321 320 320 319 318 317 316 315 314 313 314 314 313
350 351 350 349 349 350 351 351 350 350 351 352 352 351 353 354 354 352 350 350 351 351 352 351 350 350 351 352 352 351 348 345 344 343 340 337 335 333 332 334 334 332 331 331 330 330 329 328 327 325 323 324 330 333 329 323 322 322 321 321 322 321 321 320 319 319 317 316 315 315 314 314 314 314
351 351 350 350 349 350 351 350 351 352 352 351 351 351 353 354 353 350 348 349 351 350 350 348 347 347 348 350 351 351 349 347 345 342 341 338 335 332 332 333 333 331 330 329 329 330 329 328 328 328 326 325 326 327 325 323 323 323 322 322 322 322 321 321 320 319 318 317 316 315 315 314 314 314
352 350 349 349 349 350 350 350 350 351 351 351 352 352 352 352 352 350 349 349 350 349 348 346 346 346 347 349 351 350 349 348 346 344 342 338 334 331 332 332 331 329 329 329 329 330 330 329 328 328 327 327 326 324 323 322 323 323 323 323 323 322 322 322 320 320 319 317 316 315 314 314 314 314
352 347 346 348 350 351 350 349 349 349 350 350 351 350 350 351 351 352 351 349 348 347 346 345 345 346 347 348 350 349 347 345 344 342 340 337 334 332 331 331 329 329 328 327 327 329 328 328 327 326 327 327 326 324 322 322 323 323 324 324 324 323 322 322 321 320 319 318 316 315 315 314 314 314
350 345 345 347 349 350 350 348 347 349 350 349 349 349 349 349 350 351 350 349 347 347 346 345 346 347 347 347 348 347 344 343 340 338 336 337 336 334 333 332 330 328 327 326 326 327 327 326 327 326 326 327 326 324 323 323 324 324 325 324 323 323 322 322 322 321 319 318 317 316 315 314 313 313
348 345 346 347 348 349 349 348 346 348 349 349 347 347 347 347 347 349 349 348 348 347 346 346 346 348 348 348 347 345 343 341 338 335 333 335 336 335 334 334 331 329 328 327 327 326 326 327 326 326 326 326 326 325 324 325 325 325 324 324 323 323 323 322 322 321 321 320 319 317 316 315 314 314
347 345 346 347 347 348 349 349 346 346 348 349 348 347 346 346 346 346 347 348 347 347 346 346 347 348 348 347 345 343 341 339 337 334 331 332 334 334 334 334 332 330 329 328 328 327 326 326 326 326 326 326 326 325 325 325 325 324 324 324 323 323 322 321 321 320 320 320 320 319 317 316 315 314
345 344 344 344 345 347 349 348 345 343 346 349 349 347 345 343 343 344 345 345 345 345 345 344 343 342 341 340 340 338 336 334 333 333 331 331 332 332 332 332 331 329 327 327 327 326 326 326 326 326 326 326 326 325 325 325 325 324 324 324 323 322 321 321 321 321 320 320 320 319 318 317 316 314
Wind_Speed
12 13 12 11 11 10 9 8 7 7 8 9 8 8 7 5 3 1 3 4 3 4 5 5 5 6 8 10 10 10 10 10 12 13 15 16 17 17 18 19 19 19 19 19 20 20 21 22 22 23 24 24 25 25 24 23 23 23 22 21 20 18 17 17 16 15 15 15 16 16 17 18 20 22
12 13 13 12 12 11 10 9 9 8 8 8 6 6 7 7 6 4 3 3 4 5 5 6 6 7 8 8 9 9 9 10 11 12 14 15 17 18 18 18 18 18 19 20 20 21 21 22 22 22 22 22 22 22 23 23 22 20 18 16 16 15 15 15 14 14 13 12 13 13 14 14 15 17
13 14 14 14 14 12 11 10 10 10 9 8 6 6 8 9 9 8 5 3 5 6 6 7 9 10 10 9 9 9 9 10 12 13 14 15 16 17 17 18 18 18 19 20 20 20 20 20 20 20 20 21 21 22 21 20 17 15 14 14 14 14 14 15 14 14 14 13 13 12 12 12 12 13
15 15 16 16 15 13 12 12 11 11 10 9 8 9 10 10 10 10 7 6 9 11 10 11 11 10 11 11 10 11 12 13 13 14 15 16 17 18 18 18 18 18 18 18 18 18 18 19 19 19 20 20 20 18 16 14 13 12 13 13 14 14 14 14 14 14 14 14 14 13 12 12 12 11
18 18 18 18 17 15 15 14 13 13 12 10 10 10 11 11 10 10 9 9 12 14 13 13 12 12 13 13 13 15 16 16 16 16 16 17 19 19 19 18 17 16 16 16 16 16 17 18 19 19 18 16 14 12 11 11 12 12 13 14 14 15 15 14 14 14 14 15 14 13 12 11 11 11
21 20 20 20 19 18 17 16 14 14 14 13 12 12 12 12 11 11 12 11 11 15 17 16 15 15 15 16 17 18 19 19 19 19 18 19 19 19 18 17 16 14 14 14 15 15 16 16 15 13 12 11 10 10 11 12 13 13 13 13 14 14 14 14 14 15 16 15 15 14 13 11 10 10
23 23 23 22 21 19 20 19 17 15 15 14 14 14 14 14 14 13 14 14 13 16 19 19 18 17 17 19 19 19 20 20 20 20 20 20 18 17 17 16 13 11 12 13 14 15 14 12 10 10 11 10 10 11 12 13 13 12 12 12 13 13 14 14 15 16 16 16 15 15 14 12 11 11
23 23 24 25 23 21 21 21 20 18 17 17 17 17 17 17 16 15 16 16 16 17 19 20 20 19 20 21 21 21 21 21 20 20 21 20 17 16 16 13 10 10 11 12 14 13 10 9 10 10 10 10 11 12 12 12 11 11 12 12 13 14 15 16 16 17 17 17 16 15 14 13 12 11
24 23 24 25 24 23 23 23 22 20 20 20 20 20 20 19 19 18 17 17 17 18 20 22 22 20 20 21 22 22 21 20 20 20 20 18 16 16 14 9 8 10 11 12 14 11 7 9 10 10 10 11 12 12 11 11 11 12 12 13 14 15 16 16 16 16 16 17 17 16 15 14 13 11
26 25 25 25 24 24 24 24 24 22 22 21 22 22 21 20 20 19 19 19 18 19 20 21 22 21 21 22 23 21 20 19 20 20 19 18 17 14 11 8 9 10 9 12 14 9 7 9 10 11 11 12 13 11 10 10 11 12 13 14 14 15 15 15 15 15 16 16 16 16 16 15 13 11
27 27 27 26 26 25 25 25 25 25 24 24 23 23 22 21 20 20 20 20 19 19 20 20 21 21 21 22 22 21 20 19 18 18 19 20 17 12 9 10 12 10 9 14 13 8 7 9 10 11 11 11 11 9 9 10 11 12 13 13 14 14 14 14 15 15 16 16 16 16 16 15 14 11
28 28 28 28 28 28 28 27 26 26 26 26 25 25 24 22 22 21 22 22 21 21 20 21 21 21 22 23 23 22 19 16 15 15 16 19 17 12 9 11 12 9 11 16 13 7 6 8 9 11 11 10 8 7 8 10 11 12 13 13 13 14 15 16 17 17 17 17 17 17 16 15 14 12
30 29 29 29 29 29 29 29 28 27 27 27 27 27 26 24 23 23 23 23 23 22 21 21 21 21 22 24 24 21 17 14 14 15 15 16 15 11 10 12 11 8 12 17 13 7 6 8 10 12 11 9 7 7 8 10 10 11 12 12 14 15 17 19 20 20 19 18 18 18 17 16 15 13
32 31 31 30 30 29 29 29 29 29 28 27 27 27 26 25 25 24 23 22 22 22 21 22 22 20 22 25 24 19 16 15 15 15 13 14 13 12 12 12 9 6 11 16 12 7 5 7 9 11 9 7 6 7 9 9 10 10 11 13 15 17 20 22 22 22 20 19 18 18 18 18 16 14
34 33 32 32 31 30 30 30 30 29 29 28 27 27 26 26 26 26 25 24 22 22 21 23 22 20 23 27 25 19 17 17 16 15 14 13 13 13 12 10 8 6 8 12 10 6 4 6 8 8 6 5 5 7 8 8 9 10 11 14 17 20 22 23 23 22 21 20 19 19 19 19 17 15
35 34 34 33 33 32 32 31 31 30 30 29 29 28 27 26 26 27 28 27 25 24 22 23 23 23 25 28 26 21 18 17 15 15 15 14 14 14 12 11 10 7 7 9 8 4 2 4 7 5 3 4 5 6 7 7 8 10 12 15 19 22 23 23 23 23 23 21 20 18 18 19 18 16
36 35 34 34 34 34 33 32 32 31 31 31 30 29 29 28 27 27 28 29 29 29 27 25 26 27 27 28 27 24 20 18 16 16 17 17 16 15 14 13 10 7 7 8 5 3 1 2 5 3 3 4 4 5 6 7 8 10 13 17 20 22 22 23 23 24 24 23 21 19 17 16 17 16
36 36 35 35 35 35 34 34 33 32 32 31 31 30 29 29 28 27 28 28 29 30 30 30 31 32 31 31 30 28 25 22 20 19 18 18 16 15 14 12 9 7 7 7 4 3 4 1 4 1 5 4 3 4 6 7 8 11 14 18 21 21 21 22 23 24 24 23 22 19 16 14 14 14
37 37 36 36 35 36 35 35 34 33 32 32 31 31 30 30 30 28 28 28 28 29 30 31 32 33 33 32 32 31 29 27 24 21 19 16 15 14 13 10 8 7 6 7 5 5 6 3 2 3 7 5 1 3 6 7 8 11 15 19 21 21 21 21 22 23 24 22 21 19 16 13 12 12
38 38 37 36 36 36 36 36 35 34 32 31 31 32 32 31 31 30 29 28 28 29 29 30 30 30 30 31 31 31 31 29 26 22 19 16 14 12 11 11 10 8 7 8 7 6 6 4 2 4 8 4 0 3 5 6 7 11 15 19 21 21 20 21 21 23 23 21 20 17 15 13 11 10
39 39 38 37 36 36 37 37 36 34 32 31 31 32 33 32 32 32 32 30 30 30 29 29 29 28 27 28 29 29 29 28 25 21 18 17 15 12 12 12 11 10 8 8 8 7 6 4 3 6 8 4 1 4 5 5 7 10 14 18 21 21 20 20 21 22 23 21 19 16 15 14 13 12
40 40 39 38 37 37 38 38 37 35 32 31 31 32 32 31 32 34 34 32 31 31 30 30 30 30 29 28 27 26 25 23 23 22 21 20 17 15 16 15 12 10 9 10 10 7 5 6 5 7 9 6 2 3 4 4 5 8 11 16 20 21 20 20 20 22 22 21 19 17 16 15 15 15
40 40 39 38 37 38 38 38 38 36 34 32 32 33 31 30 33 35 34 32 31 31 30 30 30 30 30 28 26 24 22 21 22 23 23 22 19 19 19 17 11 6 7 12 12 8 6 8 8 7 8 6 5 5 5 4 4 6 8 13 19 20 19 18 19 20 22 21 20 18 17 17 18 18
38 38 39 39 38 38 39 39 38 37 35 34 34 33 31 31 34 35 33 31 31 31 30 30 29 28 28 27 25 23 22 21 21 22 22 21 19 20 20 18 14 9 6 8 12 10 8 9 10 9 7 5 4 5 7 5 3 3 6 12 18 19 19 18 18 19 21 21 22 20 18 18 19 20
38 38 38 39 39 39 38 38 38 37 36 35 35 34 33 34 35 34 32 32 31 29 29 29 28 28 27 26 25 24 23 22 21 20 20 19 17 17 18 17 17 15 11 9 11 12 11 12 13 11 8 7 6 5 7 7 4 3 3 10 17 18 19 19 17 18 20 21 22 22 21 20 20 21
39 39 40 40 40 38 37 36 36 35 35 35 35 35 35 35 34 34 34 33 31 29 28 28 28 28 27 27 25 24 24 22 20 19 19 17 15 15 16 16 16 15 13 11 13 14 13 14 15 13 11 10 8 7 8 9 6 4 2 6 14 16 17 18 17 17 19 21 23 23 23 23 23 22
41 41 41 41 41 39 37 36 34 33 33 33 33 34 35 35 35 34 34 33 31 29 28 27 27 28 28 27 26 25 24 23 21 19 18 16 15 15 15 15 15 12 9 11 14 15 14 15 16 14 11 11 10 9 9 10 8 5 3 2 8 13 15 16 17 17 17 19 22 23 24 24 25 24
42 41 42 42 41 40 38 37 35 34 33 32 32 31 32 33 33 32 31 31 30 28 27 27 28 30 30 28 27 27 26 24 20 18 15 14 14 15 14 15 15 13 11 12 15 16 16 16 15 12 10 10 11 11 10 10 10 6 2 2 4 9 14 15 16 17 18 19 22 24 24 26 26 26
44 44 43 42 41 40 38 36 35 34 33 32 31 31 31 32 32 31 31 30 28 27 28 29 30 31 31 31 30 28 25 21 18 16 15 15 15 15 14 15 15 15 15 16 17 17 18 17 14 11 9 9 10 12 12 11 11 7 2 2 3 5 11 14 14 16 19 21 23 25 26 26 27 27
46 45 44 43 40 38 36 35 34 33 33 31 30 29 29 30 32 31 31 30 29 29 30 31 33 33 33 32 30 27 23 21 19 17 16 16 16 16 17 17 17 18 18 18 18 18 18 16 12 9 9 9 10 12 13 12 10 8 3 2 3 3 7 11 13 15 18 20 23 25 26 27 27 27
48 47 45 41 38 35 34 33 32 30 29 27 26 27 27 29 30 29 29 29 30 30 31 33 34 34 32 31 29 26 23 21 19 17 15 15 16 18 19 19 19 19 20 19 19 18 17 14 10 8 8 10 11 13 13 11 8 6 4 1 3 3 5 9 11 14 16 18 21 24 25 27 27 28
49 47 41 36 33 32 31 30 28 27 24 23 23 24 26 27 28 27 27 28 29 30 31 32 32 31 30 29 27 25 22 20 18 15 14 15 18 21 22 21 20 19 19 20 20 19 17 13 10 8 7 8 10 13 14 13 9 5 4 3 0 2 4 7 9 12 14 16 19 21 23 25 27 28
45 41 35 31 30 29 28 27 26 23 20 19 19 21 24 26 28 28 28 29 30 31 31 32 31 30 29 27 25 22 21 20 18 16 16 18 21 24 24 23 22 21 21 23 23 21 18 15 12 10 8 8 9 11 12 12 9 7 5 4 3 1 3 6 8 11 13 15 17 19 20 22 24 26
38 33 29 29 30 28 26 25 23 20 16 14 15 18 23 28 31 31 31 32 33 33 33 33 31 28 26 24 24 23 22 20 19 18 19 22 24 26 26 25 23 23 23 25 26 23 20 16 14 12 10 10 12 12 10 9 8 6 6 5 4 3 3 4 7 10 12 14 16 16 17 19 22 23
34 31 28 28 28 25 23 24 22 17 12 11 12 18 25 32 35 34 33 34 36 35 35 33 30 27 25 26 26 26 24 23 22 23 24 25 26 28 28 26 25 25 27 28 28 25 21 19 17 14 12 11 11 11 11 10 8 7 7 6 6 5 4 4 5 8 10 12 13 14 15 16 19 20
32 30 29 28 25 22 22 23 17 11 14 15 17 24 29 33 36 34 33 34 35 35 34 33 30 28 28 28 29 28 27 25 25 26 27 27 27 27 27 26 26 29 30 29 28 26 23 21 19 17 13 10 6 6 8 10 9 9 8 8 7 6 6 6 5 6 8 9 10 11 12 13 15 18
30 30 30 28 23 20 18 14 11 16 18 22 29 32 32 35 37 35 32 31 31 31 32 31 29 27 25 25 26 26 26 25 25 25 27 27 26 25 25 25 26 29 31 29 27 26 24 22 21 18 13 7 3 4 6 7 8 9 9 9 9 7 7 7 7 6 6 7 8 8 9 10 12 14
31 31 29 23 18 16 15 15 19 23 26 30 32 31 32 36 37 33 30 29 29 29 30 30 29 26 24 24 24 24 23 23 23 24 25 26 26 25 25 25 25 27 28 26 25 25 24 22 21 20 15 9 5 4 5 6 6 6 7 8 9 8 8 9 10 9 7 7 8 7 8 9 9 10
33 33 27 19 18 20 22 24 25 27 27 27 28 29 31 35 34 30 28 29 30 30 30 30 28 26 24 24 25 24 23 23 24 25 26 27 27 27 25 24 23 23 23 22 21 23 25 24 22 21 18 15 10 7 6 6 7 8 9 9 10 10 10 11 12 11 11 10 9 8 8 8 9 9
35 31 23 19 22 26 28 28 27 27 27 27 28 29 30 32 32 31 31 30 30 30 29 28 27 27 25 25 25 25 25 25 26 27 27 28 28 27 25 22 21 21 21 19 19 20 23 22 20 17 17 16 14 11 9 9 10 12 11 11 10 11 11 13 13 14 13 12 10 10 10 9 9 9
33 26 21 22 26 29 29 27 27 27 27 26 27 27 28 29 30 32 33 31 29 28 28 26 26 27 27 26 26 26 25 25 25 25 26 27 27 26 23 22 21 21 19 18 19 19 18 17 14 12 12 14 15 12 9 8 11 13 12 10 10 10 11 13 14 16 15 14 13 12 11 10 10 10
27 22 22 26 30 31 28 25 25 25 26 26 25 24 25 28 31 34 35 32 28 26 26 25 25 25 25 24 25 25 25 24 23 23 23 24 24 24 23 22 22 21 19 17 17 16 14 13 12 11 11 13 14 12 9 10 13 14 13 10 10 10 11 13 15 16 17 18 17 15 12 9 8 7
21 18 20 24 26 27 25 23 25 26 27 29 28 26 27 30 33 34 35 33 29 27 26 25 24 24 24 24 24 25 24 23 22 22 22 22 22 22 22 23 22 20 18 15 13 12 11 11 11 11 10 11 12 12 12 13 14 13 12 11 11 11 12 14 15 17 19 20 21 20 17 14 10 8
16 16 18 19 20 21 21 21 25 28 27 27 29 31 32 32 33 34 35 33 29 27 26 25 25 25 25 23 23 23 22 22 20 20 19 20 19 19 19 21 21 18 16 13 11 10 10 10 9 8 9 9 9 10 11 11 11 11 11 12 12 12 13 13 14 15 17 19 20 22 22 20 18 16
14 16 17 18 19 20 20 19 22 26 28 28 30 31 28 26 27 29 29 27 25 25 25 23 22 20 18 17 18 19 19 18 17 17 16 17 17 16 16 18 18 15 12 10 9 9 9 7 6 6 7 7 6 6 7 8 9 10 11 13 13 12 11 12 12 13 15 16 17 19 21 22 21 21
Wind_Direction
245 243 246 252 253 251 254 256 260 275 296 308 294 268 262 252 223 292 319 298 294 299 304 310 323 346 354 347 339 333 326 320 314 313 314 315 320 324 326 327 328 330 333 335 337 338 340 340 339 337 335 333 331 330 330 330 329 329 328 327 327 326 324 322 319 318 315 312 309 304 299 295 290 287
245 245 246 251 255 256 257 255 258 268 281 296 295 269 263 264 249 232 248 281 288 288 296 299 303 322 336 340 339 335 333 330 327 325 323 324 327 329 330 334 338 341 343 343 344 343 342 340 338 335 332 330 329 329 329 329 330 332 335 338 340 340 340 340 340 340 338 333 328 322 313 305 297 291
245 247 249 252 255 258 261 258 257 261 264 269 272 261 259 265 266 256 237 242 278 284 299 309 313 319 321 322 325 328 337 342 341 340 337 338 340 340 341 344 346 346 345 343 342 340 338 335 333 331 328 327 327 329 331 335 340 345 349 349 349 349 348 349 349 349 349 346 342 339 333 325 316 305
245 250 252 253 254 257 262 260 256 255 255 257 256 255 260 262 264 260 239 230 267 283 297 308 318 327 323 318 322 331 343 350 348 345 345 348 348 348 348 348 348 346 342 339 339 337 334 332 330 328 326 327 331 338 345 350 353 352 352 351 349 348 346 346 345 343 343 341 338 336 334 331 329 324
246 250 254 254 253 255 259 262 259 254 252 255 255 252 255 257 260 261 250 248 271 289 300 308 317 325 324 320 324 334 340 344 344 345 349 351 350 352 352 350 348 344 338 337 337 335 332 329 327 327 332 341 351 359 360 357 356 354 354 352 348 346 344 342 342 340 339 338 336 332 325 320 321 322
249 251 254 255 254 255 258 260 261 260 255 253 256 255 252 256 262 267 265 261 269 286 298 305 309 316 320 319 322 330 334 336 339 342 348 352 352 355 353 348 346 342 337 337 336 336 333 332 337 348 4 15 14 6 0 359 360 357 353 352 349 348 347 346 345 342 339 338 339 338 329 314 305 308
251 251 251 254 256 257 258 258 259 261 259 256 258 260 259 260 264 268 271 269 266 278 290 297 302 308 314 314 317 324 327 330 334 337 343 350 354 356 352 347 347 341 335 338 341 343 344 351 12 31 33 24 9 2 3 3 2 360 359 360 359 357 356 353 348 343 341 340 341 343 338 326 312 306
252 251 250 253 256 259 260 258 256 257 259 258 259 262 264 264 265 268 272 273 272 273 280 288 295 301 305 308 313 318 321 326 329 333 340 347 351 353 351 350 348 338 335 345 353 355 1 24 44 42 27 13 6 6 9 11 11 12 10 8 5 360 355 349 345 343 343 344 344 343 340 332 324 316
253 253 252 254 256 259 261 258 255 256 258 260 261 263 266 266 267 269 271 275 277 274 275 283 292 298 301 304 309 314 318 322 326 331 339 345 347 350 352 352 342 335 342 0 6 8 28 51 49 32 15 9 11 16 21 23 20 16 11 7 1 355 350 346 344 344 345 346 346 345 342 337 331 323
257 256 256 257 257 258 260 258 256 256 259 261 261 262 265 268 270 271 271 274 277 276 277 282 288 294 298 302 306 311 315 320 325 331 337 341 345 347 348 346 339 340 354 9 13 22 52 59 42 19 9 13 20 27 29 25 20 15 11 5 360 355 353 353 352 351 351 349 349 348 347 345 341 330
259 258 258 259 258 257 258 259 259 260 261 261 261 261 264 268 270 271 271 273 273 274 277 279 283 290 295 299 301 304 310 316 324 332 334 335 339 341 337 337 340 345 359 8 16 36 64 60 36 12 12 22 27 30 27 22 20 16 11 6 4 2 0 359 357 354 352 350 347 346 347 349 349 343
259 260 260 261 260 258 257 258 260 262 264 265 264 264 263 265 268 269 271 273 272 272 275 277 281 285 289 293 295 299 307 315 324 331 329 327 329 329 326 332 338 345 356 4 16 45 69 60 32 13 23 36 34 31 25 20 19 15 12 10 8 7 4 1 358 354 351 347 343 338 336 337 341 344
259 261 261 262 263 262 260 260 261 262 265 268 268 267 266 264 266 267 269 270 269 269 271 273 277 281 284 289 292 296 305 313 318 323 322 320 321 318 319 327 334 344 353 358 13 46 65 56 30 15 29 45 39 31 25 21 21 17 13 12 9 8 6 3 1 360 357 352 345 337 331 327 327 329
258 260 262 263 265 265 265 265 265 264 264 266 268 270 269 268 267 267 267 265 265 265 267 271 274 276 280 286 289 293 301 308 312 315 314 314 314 313 318 326 330 343 350 351 6 42 62 55 32 17 31 49 39 31 28 25 24 19 13 12 9 7 5 3 4 6 5 2 355 346 339 333 327 323
257 258 260 262 264 265 266 267 267 266 266 265 266 268 269 268 268 268 267 266 265 264 265 269 272 272 276 284 288 291 297 303 306 309 309 308 308 310 315 319 317 329 344 344 354 23 54 53 32 17 35 56 39 34 35 28 22 16 13 12 8 5 4 5 6 9 11 10 4 355 349 344 339 333
255 256 258 260 261 262 264 266 267 268 268 268 267 268 269 268 268 268 268 267 267 266 266 268 271 271 274 282 286 289 294 297 299 302 304 302 304 304 301 300 300 308 329 332 337 354 40 53 31 21 66 75 45 40 36 21 15 13 14 13 9 6 7 7 8 10 12 14 11 4 356 349 347 346
253 255 256 256 258 260 262 264 265 266 268 270 270 269 269 269 268 268 269 269 269 269 267 267 270 273 274 278 284 288 290 290 291 293 297 300 302 298 294 293 293 296 312 318 322 312 249 46 26 33 122 103 57 42 28 13 11 15 15 13 11 10 11 12 11 11 12 12 11 9 4 354 351 354
252 253 254 254 256 259 261 262 263 264 266 269 270 271 270 270 271 271 270 270 270 270 268 266 269 274 275 276 284 289 287 285 287 290 295 299 300 297 294 291 283 283 298 305 299 258 226 270 9 76 152 128 68 33 24 15 14 15 13 12 14 16 17 15 14 13 13 11 7 7 9 2 354 359
250 252 253 252 254 257 260 261 262 263 265 267 269 270 271 272 274 274 272 271 272 274 275 273 273 277 278 279 284 287 285 284 288 291 294 296 296 293 287 280 271 269 281 286 275 238 226 259 341 152 158 145 76 23 27 20 13 13 14 16 20 22 21 19 19 18 16 13 7 5 10 10 1 4
249 251 251 251 252 255 258 260 261 262 263 264 265 267 270 271 273 274 274 272 273 276 279 281 280 281 282 281 282 283 282 283 287 290 291 290 286 277 267 266 264 257 261 265 253 229 229 259 284 175 165 154 14 3 20 19 16 17 19 23 26 25 24 24 24 24 22 17 11 7 11 16 12 9
248 249 250 250 251 252 255 259 260 261 259 259 261 264 267 269 271 273 275 274 274 275 277 279 281 282 283 282 282 281 280 281 282 282 281 281 276 257 247 254 254 245 245 245 232 224 230 256 264 208 185 170 345 344 354 2 21 28 26 27 29 28 28 28 29 29 27 23 17 12 13 18 19 17
248 249 250 250 250 251 254 257 259 259 257 256 257 259 261 264 267 272 274 274 274 275 276 276 277 279 280 280 281 280 278 277 276 274 275 277 270 250 243 249 247 238 238 230 219 216 229 246 252 218 199 201 251 307 322 342 22 36 34 33 33 32 30 30 31 34 33 30 26 20 16 17 19 18
248 249 250 250 249 250 254 256 258 257 255 254 255 256 256 256 262 269 272 273 274 275 275 275 276 277 278 278 278 277 276 275 273 273 276 276 264 249 247 248 237 227 235 224 213 210 224 233 228 210 201 209 221 242 269 299 5 31 38 41 40 37 33 30 32 36 38 37 35 29 21 16 15 16
247 248 249 250 250 251 253 255 257 256 254 254 255 254 250 251 260 268 270 271 272 274 275 276 277 277 278 278 277 275 274 273 270 272 277 275 264 253 251 247 235 232 239 217 207 212 221 217 210 204 209 220 212 218 240 257 313 6 35 47 45 40 34 31 32 35 38 39 39 37 31 21 15 14
245 247 249 250 252 252 253 255 257 256 255 255 255 253 252 255 263 268 269 269 271 272 274 275 275 275 276 276 274 273 272 272 271 273 276 275 267 256 251 248 242 243 245 223 208 215 215 205 200 197 206 222 223 218 226 232 249 291 16 48 47 42 35 31 31 35 36 37 38 38 37 33 27 20
244 246 249 251 254 255 256 258 259 259 258 256 254 255 257 260 264 265 265 267 268 268 269 271 270 270 270 269 269 269 270 270 271 272 271 270 268 261 253 250 249 249 245 226 215 220 218 206 198 194 199 213 218 221 231 233 237 248 245 55 48 42 37 33 32 34 36 36 37 37 36 36 36 33
243 246 248 251 254 256 257 260 262 263 261 258 257 260 261 261 262 262 262 263 263 263 264 264 263 264 265 265 265 266 268 271 272 269 266 264 262 257 251 247 243 240 234 222 220 225 222 210 200 197 206 212 203 204 225 234 235 240 220 124 57 43 37 34 34 35 35 36 37 36 35 35 35 35
242 245 247 250 253 255 257 259 262 263 263 262 262 264 263 261 259 258 258 259 260 260 259 257 256 258 260 261 263 266 271 273 270 265 262 259 254 249 244 236 226 217 214 218 221 222 219 213 204 202 214 217 205 203 213 220 225 235 234 146 82 47 35 33 35 36 36 35 35 35 34 33 32 31
243 245 248 250 252 254 256 258 259 260 260 261 263 264 262 260 258 257 257 259 258 256 254 253 253 254 257 260 265 269 270 267 260 256 254 252 245 234 224 217 213 211 212 217 219 216 212 211 210 209 214 215 215 215 211 207 216 227 250 63 92 54 31 29 33 36 36 36 35 34 32 30 30 29
245 246 248 249 250 252 255 256 257 258 259 260 261 261 261 260 259 259 260 259 256 252 251 252 252 254 257 261 264 265 261 254 252 253 251 246 235 218 207 204 207 209 211 214 214 209 205 206 212 218 215 208 212 216 208 202 208 215 217 38 69 76 30 26 30 34 36 36 35 35 33 30 29 28
243 244 245 246 248 250 253 254 256 258 259 259 259 259 260 260 261 261 262 261 258 254 253 253 255 256 258 258 258 255 251 249 251 251 245 238 225 210 203 204 207 210 212 210 204 198 197 201 210 218 215 206 203 203 201 204 213 210 201 91 64 70 33 25 28 32 36 38 37 34 32 30 29 27
242 243 244 245 248 249 250 252 254 256 255 254 255 257 259 261 261 260 259 258 257 257 256 256 255 255 254 252 250 248 245 245 247 244 235 228 218 207 201 199 201 202 199 195 191 190 192 198 203 206 215 218 206 193 193 205 220 219 211 220 228 33 18 20 23 26 32 38 39 36 31 28 28 26
240 240 241 243 246 247 248 250 252 252 250 247 247 251 255 258 257 254 253 253 255 257 256 254 251 250 248 245 243 241 239 239 239 232 223 218 212 203 196 195 196 194 190 186 186 189 192 194 195 195 203 216 211 195 190 200 210 214 220 231 241 289 354 8 12 14 20 27 34 37 33 29 26 25
236 236 237 239 241 241 243 245 245 245 240 232 232 242 250 254 253 250 247 249 252 254 253 251 249 246 243 241 238 235 233 230 226 219 213 210 205 199 195 195 197 199 196 190 188 190 193 193 192 191 193 200 205 207 208 210 209 211 221 237 252 273 314 351 2 6 11 14 20 27 31 30 27 24
231 232 232 236 238 237 237 240 242 238 217 194 209 236 248 254 254 249 243 244 246 248 249 250 248 244 242 240 238 235 230 223 216 209 206 205 203 201 199 199 200 201 199 194 191 193 196 194 191 190 193 198 206 217 224 226 227 225 228 238 252 265 279 306 339 356 2 5 7 12 19 24 25 24
229 230 230 234 236 233 234 240 237 200 162 174 215 235 241 250 255 252 247 246 245 245 247 249 247 243 240 239 237 233 228 220 210 203 203 205 205 205 205 206 204 200 198 196 194 195 197 198 195 194 195 197 208 226 228 229 234 238 242 251 260 260 261 275 302 334 346 349 353 360 4 9 16 20
226 229 231 232 232 230 232 227 186 159 174 208 228 230 233 244 251 250 247 247 245 244 247 248 246 242 238 237 236 231 223 214 207 204 205 205 205 205 206 206 202 196 196 199 199 198 200 202 202 204 201 189 190 242 247 241 241 243 249 260 270 269 264 269 282 297 312 322 333 343 348 352 2 11
226 230 231 229 223 218 208 185 174 186 208 221 223 222 230 242 246 243 242 244 243 244 246 245 243 240 236 233 232 228 218 210 208 208 207 203 202 204 205 203 197 193 196 201 203 203 205 207 209 212 211 198 192 228 247 250 253 259 263 267 272 275 271 272 278 283 283 293 308 319 328 335 341 353
227 231 230 219 207 205 201 194 198 210 218 218 216 220 230 240 242 239 238 240 242 243 244 242 239 236 233 231 230 227 220 212 208 208 208 206 204 204 202 199 194 192 196 200 203 205 209 212 216 220 220 218 221 236 249 259 273 284 287 283 283 284 282 280 280 279 276 279 287 294 303 314 318 325
229 230 224 210 207 212 212 208 209 214 217 219 222 225 229 238 244 242 238 238 241 242 242 239 234 229 225 224 225 224 220 215 211 210 210 208 205 202 201 199 197 195 197 200 201 202 207 214 221 229 232 233 240 254 267 273 281 287 291 292 292 293 290 286 282 277 275 276 277 280 288 297 303 306
230 223 212 207 213 220 218 208 204 210 217 222 224 224 226 234 244 247 245 242 241 240 238 236 231 225 221 221 222 220 216 212 210 211 210 207 203 202 203 202 200 198 199 203 204 206 211 219 227 238 243 242 244 253 265 272 279 286 292 294 295 297 297 293 286 279 274 270 269 273 281 288 292 293
229 214 208 213 219 223 219 203 196 208 222 225 221 223 230 235 242 249 252 249 245 241 238 234 229 224 221 220 220 217 213 210 210 211 210 206 204 204 206 207 206 203 204 209 212 215 221 229 234 241 246 245 242 246 255 263 271 281 289 292 293 299 302 300 294 286 277 269 266 266 270 277 285 287
224 205 207 216 220 223 221 205 195 207 230 238 231 228 233 235 237 243 248 247 244 240 237 234 231 227 224 220 216 214 214 214 213 211 210 209 209 208 210 211 211 210 211 217 223 228 230 233 235 239 244 245 242 244 254 264 271 279 288 292 295 299 300 297 294 288 282 276 271 267 265 266 268 268
212 194 199 207 211 218 224 214 201 205 224 237 234 228 227 227 227 233 238 240 240 239 237 236 233 228 224 218 213 210 212 214 214 214 213 212 212 213 213 214 214 215 219 225 229 226 220 219 225 234 241 246 249 250 258 270 277 283 291 296 297 298 298 296 294 291 286 282 277 272 269 268 268 270
194 185 187 192 198 207 216 216 205 202 208 218 224 225 222 214 212 217 224 228 232 235 235 232 227 221 215 210 207 208 210 211 213 214 210 206 206 210 212 211 209 208 211 214 211 205 205 213 225 234 239 246 252 256 266 280 287 291 296 298 297 298 302 304 304 302 296 289 284 280 275 271 269 269